ACA221 CYVR-CYYC

Flight info

Callsign ACA221
Flight time 1h 19m
Altitude 37000
Route DAPED DCT PETLI DCT MENBO Q983 NORET IGVEP7
Aircraft A21N/M-SDE2E3FGHIRWXY/LB1

Departure

Time 2026-05-05 04:29
Airport Vancouver International Airport (CYVR)

Arrival

Time 2026-05-05 05:48
Airport Calgary International Airport (CYYC)
Time Latitude Longitude Altitude Speed Heading
2026-05-05 04:09 49.19639 -123.18471 16 ft 0 kts 201°
2026-05-05 04:18 49.19642 -123.18469 16 ft 2 kts 201°
2026-05-05 04:19 49.19656 -123.18462 16 ft 2 kts 204°
2026-05-05 04:19 49.19669 -123.18449 17 ft 2 kts 221°
2026-05-05 04:19 49.19679 -123.18433 17 ft 2 kts 234°
2026-05-05 04:19 49.19687 -123.18413 17 ft 2 kts 248°
2026-05-05 04:20 49.19691 -123.18391 18 ft 2 kts 262°
2026-05-05 04:20 49.19692 -123.18368 18 ft 2 kts 275°
2026-05-05 04:20 49.19691 -123.18357 18 ft 1 kts 282°
2026-05-05 04:20 49.19690 -123.18353 18 ft 0 kts 280°
2026-05-05 04:23 49.19691 -123.18359 18 ft 1 kts 280°
2026-05-05 04:23 49.19694 -123.18389 18 ft 4 kts 280°
2026-05-05 04:24 49.19702 -123.18454 16 ft 7 kts 280°
2026-05-05 04:24 49.19718 -123.18554 15 ft 10 kts 298°
2026-05-05 04:24 49.19745 -123.18658 15 ft 10 kts 283°
2026-05-05 04:25 49.19773 -123.18900 15 ft 12 kts 279°
2026-05-05 04:25 49.19788 -123.19029 15 ft 12 kts 281°
2026-05-05 04:25 49.19754 -123.19126 15 ft 12 kts 201°
2026-05-05 04:25 49.19668 -123.19159 15 ft 13 kts 191°
2026-05-05 04:26 49.19624 -123.19235 15 ft 11 kts 295°
2026-05-05 04:26 49.19682 -123.19321 15 ft 11 kts 320°
2026-05-05 04:26 49.19747 -123.19397 15 ft 12 kts 320°
2026-05-05 04:26 49.19817 -123.19480 15 ft 13 kts 323°
2026-05-05 04:27 49.19892 -123.19569 16 ft 14 kts 322°
2026-05-05 04:27 49.19971 -123.19669 18 ft 11 kts 308°
2026-05-05 04:27 49.19992 -123.19802 19 ft 14 kts 282°
2026-05-05 04:27 49.20011 -123.19955 21 ft 13 kts 270°
2026-05-05 04:28 49.19957 -123.20039 21 ft 13 kts 171°
2026-05-05 04:28 49.19935 -123.20022 21 ft 0 kts 143°
2026-05-05 04:28 49.19785 -123.19843 18 ft 65 kts 142°
2026-05-05 04:28 49.19235 -123.19185 16 ft 132 kts 142°
2026-05-05 04:29 49.18383 -123.18171 133 ft 172 kts 141°
2026-05-05 04:29 49.17427 -123.17029 782 ft 176 kts 140°
2026-05-05 04:29 49.16537 -123.15798 1552 ft 174 kts 126°
2026-05-05 04:29 49.16092 -123.14136 2083 ft 179 kts 102°
2026-05-05 04:30 49.15916 -123.12147 2378 ft 197 kts 96°
2026-05-05 04:30 49.15834 -123.09995 2708 ft 215 kts 91°
2026-05-05 04:30 49.15842 -123.07602 2980 ft 238 kts 90°
2026-05-05 04:30 49.15855 -123.04969 3370 ft 255 kts 90°
2026-05-05 04:31 49.15863 -123.02183 3862 ft 267 kts 90°
2026-05-05 04:31 49.15865 -122.99333 4511 ft 272 kts 90°
2026-05-05 04:31 49.15862 -122.96445 5168 ft 275 kts 90°
2026-05-05 04:31 49.15857 -122.93541 5804 ft 279 kts 90°
2026-05-05 04:32 49.15849 -122.90577 6425 ft 282 kts 90°
2026-05-05 04:32 49.15840 -122.87563 7023 ft 285 kts 90°
2026-05-05 04:32 49.15829 -122.84530 7619 ft 289 kts 89°
2026-05-05 04:32 49.15818 -122.81476 8205 ft 292 kts 89°
2026-05-05 04:33 49.15804 -122.78396 8772 ft 295 kts 89°
2026-05-05 04:33 49.15790 -122.75239 9378 ft 297 kts 89°
2026-05-05 04:33 49.15776 -122.72088 10056 ft 299 kts 90°
2026-05-05 04:33 49.15761 -122.68888 10605 ft 308 kts 90°
2026-05-05 04:34 49.15744 -122.65551 10966 ft 325 kts 90°
2026-05-05 04:34 49.15723 -122.62067 11383 ft 334 kts 90°
2026-05-05 04:34 49.15696 -122.58523 11967 ft 337 kts 89°
2026-05-05 04:34 49.15668 -122.54922 12572 ft 340 kts 88°
2026-05-05 04:35 49.15639 -122.51334 13157 ft 342 kts 86°
2026-05-05 04:35 49.15611 -122.47729 13783 ft 345 kts 86°
2026-05-05 04:35 49.15591 -122.44044 14386 ft 348 kts 86°
2026-05-05 04:35 49.15571 -122.40346 14953 ft 351 kts 86°
2026-05-05 04:36 49.15546 -122.36633 15522 ft 353 kts 86°
2026-05-05 04:36 49.15517 -122.32877 16065 ft 356 kts 86°
2026-05-05 04:36 49.15487 -122.29085 16585 ft 360 kts 86°
2026-05-05 04:36 49.15455 -122.25272 17106 ft 363 kts 86°
2026-05-05 04:37 49.15420 -122.21435 17602 ft 366 kts 86°
2026-05-05 04:37 49.15384 -122.17570 18108 ft 368 kts 86°
2026-05-05 04:37 49.15345 -122.13650 18605 ft 371 kts 86°
2026-05-05 04:37 49.15305 -122.09722 19090 ft 373 kts 86°
2026-05-05 04:38 49.15262 -122.05727 19592 ft 376 kts 86°
2026-05-05 04:38 49.15219 -122.01774 20065 ft 378 kts 85°
2026-05-05 04:38 49.15174 -121.97770 20511 ft 381 kts 85°
2026-05-05 04:38 49.15128 -121.93729 20946 ft 383 kts 85°
2026-05-05 04:39 49.15080 -121.89622 21377 ft 386 kts 85°
2026-05-05 04:39 49.15029 -121.85532 21815 ft 388 kts 85°
2026-05-05 04:39 49.14978 -121.81425 22228 ft 391 kts 85°
2026-05-05 04:39 49.14925 -121.77311 22641 ft 393 kts 85°
2026-05-05 04:40 49.14870 -121.73116 23035 ft 396 kts 84°
2026-05-05 04:40 49.14897 -121.68939 23452 ft 395 kts 81°
2026-05-05 04:40 49.15084 -121.64788 23842 ft 394 kts 77°
2026-05-05 04:40 49.15420 -121.60654 24229 ft 395 kts 76°
2026-05-05 04:41 49.15793 -121.56503 24580 ft 397 kts 75°
2026-05-05 04:41 49.16174 -121.52324 24917 ft 400 kts 75°
2026-05-05 04:41 49.16557 -121.48089 25295 ft 402 kts 75°
2026-05-05 04:41 49.16936 -121.43861 25668 ft 404 kts 75°
2026-05-05 04:42 49.17313 -121.39623 26032 ft 405 kts 75°
2026-05-05 04:42 49.17691 -121.35366 26369 ft 407 kts 75°
2026-05-05 04:42 49.18069 -121.31087 26678 ft 410 kts 76°
2026-05-05 04:42 49.18448 -121.26765 27000 ft 412 kts 76°
2026-05-05 04:43 49.18825 -121.22428 27301 ft 414 kts 76°
2026-05-05 04:43 49.19202 -121.18090 27619 ft 416 kts 75°
2026-05-05 04:43 49.19579 -121.13714 27920 ft 418 kts 76°
2026-05-05 04:43 49.19957 -121.09341 28207 ft 420 kts 75°
2026-05-05 04:44 49.20335 -121.04920 28516 ft 421 kts 75°
2026-05-05 04:44 49.20711 -121.00496 28823 ft 423 kts 75°
2026-05-05 04:44 49.21089 -120.96045 29122 ft 424 kts 75°
2026-05-05 04:44 49.21469 -120.91549 29391 ft 427 kts 75°
2026-05-05 04:45 49.21846 -120.87066 29646 ft 429 kts 75°
2026-05-05 04:45 49.22225 -120.82543 29914 ft 431 kts 75°
2026-05-05 04:45 49.22605 -120.77982 30200 ft 432 kts 75°
2026-05-05 04:45 49.22979 -120.73448 30494 ft 433 kts 75°
2026-05-05 04:46 49.23356 -120.68876 30748 ft 435 kts 75°
2026-05-05 04:46 49.23730 -120.64302 30990 ft 437 kts 75°
2026-05-05 04:46 49.24107 -120.59672 31287 ft 438 kts 75°
2026-05-05 04:46 49.24479 -120.55078 31648 ft 436 kts 75°
2026-05-05 04:47 49.24845 -120.50504 31993 ft 436 kts 75°
2026-05-05 04:47 49.25211 -120.45947 32353 ft 434 kts 74°
2026-05-05 04:47 49.25574 -120.41384 32700 ft 433 kts 74°
2026-05-05 04:47 49.25942 -120.36779 33020 ft 433 kts 74°
2026-05-05 04:48 49.26303 -120.32230 33337 ft 432 kts 75°
2026-05-05 04:48 49.26660 -120.27708 33624 ft 432 kts 75°
2026-05-05 04:48 49.27014 -120.23174 33912 ft 432 kts 74°
2026-05-05 04:48 49.27368 -120.18636 34229 ft 431 kts 74°
2026-05-05 04:49 49.27721 -120.14061 34595 ft 429 kts 74°
2026-05-05 04:49 49.28067 -120.09563 34936 ft 428 kts 74°
2026-05-05 04:49 49.28416 -120.05042 35247 ft 427 kts 74°
2026-05-05 04:49 49.28757 -120.00577 35519 ft 427 kts 74°
2026-05-05 04:50 49.29100 -119.96086 35757 ft 428 kts 74°
2026-05-05 04:50 49.29444 -119.91529 35995 ft 428 kts 73°
2026-05-05 04:50 49.29782 -119.87038 36199 ft 428 kts 73°
2026-05-05 04:50 49.30117 -119.82545 36411 ft 429 kts 73°
2026-05-05 04:51 49.30455 -119.77998 36565 ft 430 kts 73°
2026-05-05 04:51 49.30819 -119.73478 36719 ft 429 kts 71°
2026-05-05 04:51 49.31327 -119.68974 36907 ft 425 kts 68°
2026-05-05 04:52 49.32793 -119.60341 36936 ft 417 kts 62°
2026-05-05 04:52 49.34835 -119.52135 36916 ft 409 kts 56°
2026-05-05 04:53 49.37298 -119.44408 36906 ft 404 kts 53°
2026-05-05 04:53 49.39806 -119.36777 36919 ft 404 kts 53°
2026-05-05 04:54 49.42319 -119.29096 36935 ft 403 kts 53°
2026-05-05 04:54 49.44826 -119.21420 36942 ft 403 kts 53°
2026-05-05 04:55 49.47321 -119.13744 36958 ft 403 kts 53°
2026-05-05 04:55 49.49807 -119.06075 36960 ft 402 kts 53°
2026-05-05 04:56 49.52291 -118.98389 36960 ft 401 kts 53°
2026-05-05 04:56 49.54756 -118.90743 36970 ft 400 kts 53°
2026-05-05 04:57 49.57227 -118.83051 36982 ft 401 kts 53°
2026-05-05 04:57 49.59663 -118.75433 36979 ft 400 kts 53°
2026-05-05 04:58 49.62104 -118.67790 36981 ft 399 kts 53°
2026-05-05 04:58 49.64546 -118.60112 36974 ft 398 kts 53°
2026-05-05 04:59 49.66975 -118.52453 36981 ft 398 kts 52°
2026-05-05 04:59 49.69381 -118.44851 36992 ft 396 kts 52°
2026-05-05 05:00 49.71790 -118.37206 36989 ft 396 kts 52°
2026-05-05 05:00 49.74186 -118.29584 36982 ft 398 kts 53°
2026-05-05 05:01 49.76590 -118.21914 36971 ft 397 kts 52°
2026-05-05 05:01 49.78987 -118.14238 36981 ft 396 kts 52°
2026-05-05 05:02 49.81365 -118.06599 36998 ft 396 kts 53°
2026-05-05 05:02 49.83738 -117.98959 37004 ft 396 kts 52°
2026-05-05 05:03 49.86115 -117.91277 37005 ft 397 kts 52°
2026-05-05 05:03 49.88472 -117.83635 37004 ft 395 kts 52°
2026-05-05 05:04 49.90832 -117.75964 37000 ft 394 kts 52°
2026-05-05 05:04 49.93179 -117.68317 36997 ft 395 kts 52°
2026-05-05 05:05 49.95531 -117.60622 36990 ft 394 kts 52°
2026-05-05 05:05 49.97858 -117.52979 36983 ft 393 kts 52°
2026-05-05 05:06 50.00188 -117.45308 36987 ft 394 kts 51°
2026-05-05 05:06 50.02504 -117.37655 36994 ft 394 kts 51°
2026-05-05 05:07 50.04835 -117.29936 36996 ft 395 kts 52°
2026-05-05 05:07 50.07150 -117.22242 36997 ft 394 kts 52°
2026-05-05 05:08 50.09441 -117.14602 37073 ft 392 kts 52°
2026-05-05 05:08 50.11736 -117.06922 36808 ft 392 kts 52°
2026-05-05 05:08 50.12883 -117.03073 36945 ft 394 kts 52°
2026-05-05 05:09 50.14051 -116.99158 36995 ft 396 kts 52°
2026-05-05 05:09 50.16349 -116.91424 37018 ft 395 kts 52°
2026-05-05 05:10 50.18639 -116.83685 37033 ft 394 kts 52°
2026-05-05 05:10 50.19791 -116.79784 36863 ft 395 kts 52°
2026-05-05 05:10 50.20919 -116.75953 36560 ft 393 kts 52°
2026-05-05 05:10 50.22062 -116.72063 36266 ft 390 kts 52°
2026-05-05 05:11 50.23177 -116.68261 35995 ft 388 kts 52°
2026-05-05 05:11 50.24287 -116.64484 35768 ft 385 kts 52°
2026-05-05 05:11 50.25400 -116.60682 35536 ft 384 kts 52°
2026-05-05 05:11 50.26504 -116.56918 35232 ft 386 kts 52°
2026-05-05 05:12 50.27618 -116.53111 34817 ft 388 kts 52°
2026-05-05 05:12 50.28746 -116.49249 34279 ft 389 kts 52°
2026-05-05 05:12 50.29856 -116.45441 33623 ft 391 kts 52°
2026-05-05 05:12 50.30972 -116.41609 32953 ft 392 kts 52°
2026-05-05 05:13 50.32109 -116.37693 32283 ft 392 kts 52°
2026-05-05 05:13 50.33231 -116.33822 31615 ft 393 kts 53°
2026-05-05 05:13 50.34348 -116.29926 30917 ft 395 kts 53°
2026-05-05 05:13 50.35469 -116.26054 30424 ft 390 kts 53°
2026-05-05 05:14 50.36568 -116.22263 29990 ft 386 kts 54°
2026-05-05 05:14 50.37658 -116.18450 29564 ft 382 kts 54°
2026-05-05 05:14 50.38711 -116.14637 29125 ft 381 kts 56°
2026-05-05 05:14 50.39641 -116.10807 28656 ft 382 kts 58°
2026-05-05 05:15 50.40508 -116.06919 28215 ft 380 kts 58°
2026-05-05 05:15 50.41378 -116.03014 27767 ft 377 kts 59°
2026-05-05 05:15 50.42231 -115.99157 27327 ft 375 kts 59°
2026-05-05 05:15 50.43071 -115.95339 26892 ft 372 kts 59°
2026-05-05 05:16 50.43920 -115.91501 26442 ft 370 kts 59°
2026-05-05 05:16 50.44754 -115.87752 25893 ft 367 kts 59°
2026-05-05 05:16 50.45592 -115.83965 25529 ft 367 kts 60°
2026-05-05 05:16 50.46421 -115.80191 25283 ft 368 kts 59°
2026-05-05 05:17 50.47244 -115.76427 25055 ft 372 kts 59°
2026-05-05 05:17 50.48092 -115.72559 24362 ft 376 kts 59°
2026-05-05 05:17 50.48935 -115.68702 23820 ft 376 kts 59°
2026-05-05 05:17 50.49773 -115.64846 23332 ft 374 kts 59°
2026-05-05 05:18 50.50602 -115.61015 22886 ft 372 kts 60°
2026-05-05 05:18 50.51438 -115.57154 22440 ft 372 kts 60°
2026-05-05 05:18 50.52267 -115.53323 21963 ft 372 kts 60°
2026-05-05 05:18 50.53095 -115.49497 21462 ft 373 kts 60°
2026-05-05 05:19 50.53915 -115.45686 20949 ft 373 kts 60°
2026-05-05 05:19 50.54742 -115.41835 20478 ft 371 kts 60°
2026-05-05 05:19 50.55563 -115.37986 20018 ft 368 kts 61°
2026-05-05 05:19 50.56374 -115.34196 19565 ft 366 kts 62°
2026-05-05 05:20 50.57166 -115.30442 19134 ft 363 kts 62°
2026-05-05 05:20 50.57965 -115.26693 18709 ft 360 kts 62°
2026-05-05 05:20 50.58754 -115.22997 18274 ft 357 kts 62°
2026-05-05 05:20 50.59532 -115.19329 17863 ft 353 kts 62°
2026-05-05 05:21 50.60301 -115.15707 17473 ft 349 kts 62°
2026-05-05 05:21 50.61060 -115.12130 17096 ft 346 kts 62°
2026-05-05 05:21 50.61812 -115.08569 16728 ft 344 kts 62°
2026-05-05 05:21 50.62569 -115.04997 16323 ft 343 kts 62°
2026-05-05 05:22 50.63332 -115.01424 15901 ft 344 kts 62°
2026-05-05 05:22 50.64085 -114.97868 15464 ft 346 kts 62°
2026-05-05 05:22 50.64838 -114.94314 15033 ft 346 kts 63°
2026-05-05 05:22 50.65600 -114.90699 14595 ft 344 kts 63°
2026-05-05 05:23 50.66336 -114.87184 14170 ft 341 kts 63°
2026-05-05 05:23 50.67078 -114.83628 13791 ft 335 kts 64°
2026-05-05 05:23 50.67788 -114.80214 13664 ft 331 kts 64°
2026-05-05 05:23 50.68505 -114.76769 13524 ft 329 kts 64°
2026-05-05 05:24 50.69218 -114.73346 13388 ft 328 kts 65°
2026-05-05 05:24 50.69918 -114.69949 13249 ft 327 kts 65°
2026-05-05 05:24 50.70684 -114.66612 13078 ft 313 kts 56°
2026-05-05 05:24 50.71836 -114.63926 13001 ft 281 kts 40°
2026-05-05 05:25 50.73137 -114.61763 13022 ft 265 kts 37°
2026-05-05 05:25 50.74437 -114.59711 13027 ft 264 kts 37°
2026-05-05 05:25 50.75725 -114.57669 12949 ft 266 kts 37°
2026-05-05 05:25 50.77015 -114.55592 12566 ft 266 kts 38°
2026-05-05 05:26 50.78292 -114.53512 12209 ft 264 kts 38°
2026-05-05 05:26 50.79567 -114.51424 11870 ft 261 kts 38°
2026-05-05 05:26 50.80815 -114.49398 11543 ft 258 kts 36°
2026-05-05 05:26 50.82098 -114.47440 11208 ft 256 kts 36°
2026-05-05 05:27 50.83384 -114.45493 10878 ft 254 kts 36°
2026-05-05 05:27 50.84655 -114.43565 10553 ft 252 kts 36°
2026-05-05 05:27 50.87142 -114.39796 9933 ft 247 kts 37°
2026-05-05 05:28 50.88371 -114.37927 9626 ft 245 kts 38°
2026-05-05 05:28 50.89599 -114.36056 9321 ft 244 kts 39°
2026-05-05 05:28 50.90803 -114.34199 9047 ft 241 kts 44°
2026-05-05 05:28 50.91630 -114.31901 8993 ft 250 kts 75°
2026-05-05 05:29 50.91682 -114.29128 9016 ft 255 kts 90°
2026-05-05 05:29 50.91573 -114.26307 9013 ft 253 kts 90°
2026-05-05 05:29 50.91481 -114.23553 9009 ft 252 kts 89°
2026-05-05 05:29 50.91398 -114.20806 9011 ft 250 kts 90°
2026-05-05 05:30 50.90956 -114.18189 8943 ft 247 kts 122°
2026-05-05 05:30 50.89668 -114.16480 8964 ft 249 kts 158°
2026-05-05 05:30 50.87948 -114.16074 9010 ft 251 kts 181°
2026-05-05 05:30 50.86218 -114.16131 9012 ft 250 kts 176°
2026-05-05 05:31 50.84573 -114.15401 8803 ft 243 kts 144°
2026-05-05 05:31 50.83437 -114.13539 8406 ft 236 kts 112°
2026-05-05 05:31 50.82984 -114.11103 8049 ft 230 kts 93°
2026-05-05 05:31 50.82890 -114.08614 7721 ft 228 kts 89°
2026-05-05 05:32 50.82841 -114.06156 7591 ft 215 kts 88°
2026-05-05 05:32 50.82810 -114.03866 7423 ft 202 kts 83°
2026-05-05 05:32 50.83293 -114.01926 7187 ft 189 kts 49°
2026-05-05 05:32 50.84329 -114.00719 7043 ft 186 kts 25°
2026-05-05 05:33 50.85540 -113.99960 6931 ft 186 kts 20°
2026-05-05 05:33 50.86799 -113.99416 6763 ft 187 kts 12°
2026-05-05 05:33 50.88070 -113.99174 6679 ft 183 kts
2026-05-05 05:33 50.89347 -113.99098 6657 ft 182 kts
2026-05-05 05:34 50.90595 -113.99073 6674 ft 180 kts
2026-05-05 05:34 50.91852 -113.99059 6609 ft 177 kts
2026-05-05 05:34 50.93070 -113.99054 6575 ft 177 kts
2026-05-05 05:34 50.94295 -113.99051 6658 ft 178 kts
2026-05-05 05:35 50.95553 -113.99050 6621 ft 180 kts
2026-05-05 05:35 50.96790 -113.99050 6401 ft 177 kts
2026-05-05 05:35 50.98006 -113.99049 6165 ft 175 kts
2026-05-05 05:35 50.99209 -113.99047 5935 ft 172 kts
2026-05-05 05:36 51.00404 -113.99044 5695 ft 172 kts
2026-05-05 05:36 51.01614 -113.99043 5459 ft 173 kts
2026-05-05 05:36 51.02793 -113.99040 5213 ft 168 kts
2026-05-05 05:36 51.03982 -113.99064 5331 ft 180 kts
2026-05-05 05:37 51.05311 -113.99076 5764 ft 203 kts
2026-05-05 05:37 51.06782 -113.99065 6268 ft 225 kts
2026-05-05 05:37 51.08407 -113.99047 6696 ft 236 kts
2026-05-05 05:37 51.10009 -113.99043 6945 ft 229 kts
2026-05-05 05:38 51.11591 -113.99040 7081 ft 227 kts
2026-05-05 05:38 51.13153 -113.98751 7030 ft 226 kts 22°
2026-05-05 05:38 51.14383 -113.97275 6913 ft 228 kts 51°
2026-05-05 05:38 51.14949 -113.94900 6868 ft 236 kts 82°
2026-05-05 05:39 51.14680 -113.92274 6995 ft 245 kts 102°
2026-05-05 05:39 51.14159 -113.89714 6995 ft 246 kts 106°
2026-05-05 05:39 51.13208 -113.87426 6982 ft 254 kts 137°
2026-05-05 05:39 51.11706 -113.85905 6997 ft 258 kts 150°
2026-05-05 05:40 51.10070 -113.84717 6989 ft 262 kts 161°
2026-05-05 05:40 51.08278 -113.84127 6993 ft 261 kts 171°
2026-05-05 05:40 51.06484 -113.83777 6990 ft 262 kts 173°
2026-05-05 05:40 51.04675 -113.83476 6980 ft 262 kts 175°
2026-05-05 05:41 51.02888 -113.83450 6754 ft 258 kts 181°
2026-05-05 05:41 51.01074 -113.83581 6502 ft 260 kts 182°
2026-05-05 05:41 50.99281 -113.83679 6491 ft 261 kts 177°
2026-05-05 05:41 50.97465 -113.83501 6489 ft 261 kts 173°
2026-05-05 05:42 50.95661 -113.83245 6491 ft 259 kts 173°
2026-05-05 05:42 50.93850 -113.83097 6480 ft 261 kts 186°
2026-05-05 05:42 50.92170 -113.84049 6485 ft 260 kts 218°
2026-05-05 05:42 50.91008 -113.86163 6488 ft 252 kts 250°
2026-05-05 05:43 50.90723 -113.88812 6498 ft 242 kts 283°
2026-05-05 05:43 50.91181 -113.91327 6515 ft 238 kts 294°
2026-05-05 05:43 50.91710 -113.93771 6504 ft 237 kts 293°
2026-05-05 05:43 50.92250 -113.96249 6496 ft 236 kts 300°
2026-05-05 05:44 50.93263 -113.98156 6455 ft 225 kts 333°
2026-05-05 05:44 50.94725 -113.98955 6501 ft 222 kts 354°
2026-05-05 05:44 50.96253 -113.99119 6447 ft 221 kts
2026-05-05 05:44 50.97767 -113.99094 6203 ft 217 kts
2026-05-05 05:45 50.99222 -113.99065 5896 ft 204 kts
2026-05-05 05:45 51.00618 -113.99052 5622 ft 194 kts
2026-05-05 05:45 51.01900 -113.99046 5467 ft 175 kts
2026-05-05 05:45 51.03088 -113.99046 5220 ft 168 kts
2026-05-05 05:46 51.04219 -113.99046 4943 ft 156 kts
2026-05-05 05:46 51.05267 -113.99047 4700 ft 145 kts
2026-05-05 05:46 51.06255 -113.99048 4508 ft 143 kts
2026-05-05 05:46 51.07242 -113.99043 4312 ft 144 kts
2026-05-05 05:47 51.08264 -113.99039 4167 ft 146 kts
2026-05-05 05:47 51.09272 -113.99040 3954 ft 145 kts
2026-05-05 05:47 51.10284 -113.99040 3738 ft 147 kts
2026-05-05 05:47 51.11297 -113.99040 3577 ft 141 kts
2026-05-05 05:48 51.12198 -113.99035 3568 ft 115 kts
2026-05-05 05:48 51.12826 -113.99035 3577 ft 65 kts 359°
2026-05-05 05:48 51.13152 -113.99030 3579 ft 38 kts
2026-05-05 05:48 51.13395 -113.99056 3582 ft 33 kts 348°
2026-05-05 05:49 51.13573 -113.99174 3583 ft 22 kts 335°
2026-05-05 05:49 51.13654 -113.99314 3585 ft 13 kts 279°
2026-05-05 05:49 51.13620 -113.99432 3584 ft 12 kts 201°
2026-05-05 05:49 51.13526 -113.99442 3582 ft 14 kts 179°
2026-05-05 05:50 51.13422 -113.99445 3582 ft 15 kts 181°
2026-05-05 05:50 51.13309 -113.99447 3579 ft 16 kts 179°
2026-05-05 05:50 51.13193 -113.99455 3579 ft 16 kts 208°
2026-05-05 05:50 51.13162 -113.99611 3579 ft 15 kts 265°
2026-05-05 05:51 51.13161 -113.99781 3576 ft 16 kts 271°
2026-05-05 05:51 51.13161 -113.99936 3571 ft 15 kts 269°
2026-05-05 05:51 51.13131 -114.00045 3569 ft 10 kts 184°
2026-05-05 05:51 51.13071 -114.00047 3569 ft 4 kts 180°
2026-05-05 05:52 51.13067 -114.00047 3569 ft 0 kts 180°